Regional Weather Roundup
Issued by NWS

Home | Current Version | Previous Version | Graphics & Text | Print | Product List | Glossary On
Versions: 1 2 3 4 5 6 7 8 9 10 11 12 13 14 15 16 17 18 19 20 21 22 23 24 25 26 27 28 29 30 31 32 33 34 35 36 37 38 39 40 41 42 43 44 45 46 47 48 49 50
000
ASUS43 KMKX 030600
RWRWI

WISCONSIN REGIONAL WEATHER ROUNDUP
NATIONAL WEATHER SERVICE MILWAUKEE/SULLIVAN WI
100 AM CDT FRI JUL 03 2015

NOTE: "FAIR" INDICATES FEW OR NO CLOUDS BELOW 12,000 FEET WITH NO
SIGNIFICANT WEATHER AND/OR OBSTRUCTIONS TO VISIBILITY.

WIZ001-002-006>008-014>016-023>028-030700-
NORTHWEST WISCONSIN

CITY           SKY/WX    TMP DP  RH WIND       PRES   REMARKS
SUPERIOR ARPT  CLEAR     59  56  89 SW6       29.93S
ASHLAND        CLEAR     63  55  75 SW8       29.94S
6HR MIN TEMP:  61; 6HR MAX TEMP:  74;

HAYWARD        CLEAR     55  52  89 CALM      29.97F
6HR MIN TEMP:  54; 6HR MAX TEMP:  73;

SIREN          CLEAR     62  54  75 SW7       29.97F
CUMBERLAND     CLEAR     55  54  94 CALM      29.99S
RICE LAKE      CLEAR     57  55  94 CALM      30.00S FOG
CHETEK         CLEAR     58  57  97 SE5       29.99S
LADYSMITH      CLEAR     60  56  84 CALM      30.01S
EAU CLAIRE     NOT AVBL
MENOMONIE      CLEAR     61  57  87 CALM      29.99S
NEW RICHMOND   CLEAR     58  55  89 CALM      29.99S
OSCEOLA        CLEAR     60  59  99 CALM      30.01S
$$

WIZ003>005-009-010-017-018-030700-
NORTH CENTRAL WISCONSIN

CITY           SKY/WX    TMP DP  RH WIND       PRES   REMARKS
MANITOWISH WTR CLEAR     57  55  92 SW3       29.98F
ARBOR VITAE    CLEAR     59  55  85 SW5       30.00R
WOODRUFF       CLEAR     59  55  85 SW5       30.00R
RHINELANDER    CLEAR     58  51  78 SW5       30.01S
6HR MIN TEMP:  57; 6HR MAX TEMP:  73;

EAGLE RIVER    CLEAR     59  50  72 SW3       29.99S
LAND O LAKES   CLEAR     55  53  93 CALM      30.00R
PHILLIPS       CLEAR     58  54  84 SW3       30.00R
TOMAHAWK       CLEAR     53  51  92 CALM      30.01S
MEDFORD        CLEAR     57  51  80 S3        30.01S
MERRILL        CLEAR     50  50  99 CALM      30.02S
$$

WIZ029-030-035-036-043>047-030700-
CENTRAL WISCONSIN

CITY           SKY/WX    TMP DP  RH WIND       PRES   REMARKS
WAUSAU         CLEAR     58  52  80 CALM      30.00S
6HR MIN TEMP:  57; 6HR MAX TEMP:  73;

MOSINEE        CLEAR     55  52  88 CALM      30.02S
MARSHFIELD     CLEAR     57  50  77 CALM      30.01S
6HR MIN TEMP:  57; 6HR MAX TEMP:  72;

STEVENS POINT  CLEAR     51  49  93 CALM      30.01F
WAUPACA        CLEAR     54  53  96 CALM      30.01S
WAUTOMA        NOT AVBL
WISC RAPIDS    CLEAR     57  48  72 CALM      30.02S
6HR MIN TEMP:  53; 6HR MAX TEMP:  72;

CAMP DOUGLAS   PTCLDY    48  48 100 CALM      30.00S
$$

WIZ011>013-019>022-031-037>040-048>050-030700-
NORTHEAST WISCONSIN

CITY           SKY/WX    TMP DP  RH WIND       PRES   REMARKS
ANTIGO         CLEAR     53  49  86 SW5       30.02S
SHAWANO        CLEAR     59  51  75 SW3       30.01S
OCONTO         CLEAR     50  50 100 CALM      29.99S
STURGEON BAY   CLEAR     55  43  62 S5        30.02S
6HR MIN TEMP:  52; 6HR MAX TEMP:  66;

GREEN BAY      CLEAR     55  50  83 CALM      30.01S
6HR MIN TEMP:  55; 6HR MAX TEMP:  71;

MANITOWOC      NOT AVBL
APPLETON       CLEAR     59  46  63 CALM      30.02S
CLINTONVILLE   CLEAR     52  48  87 CALM      30.01S
OSHKOSH        CLEAR     54  48  80 S3        30.00F
6HR MIN TEMP:  53; 6HR MAX TEMP:  71;

$$

WIZ032>034-041-042-053>061-030700-
SOUTHWEST WISCONSIN

CITY           SKY/WX    TMP DP  RH WIND       PRES   REMARKS
LA CROSSE      PTCLDY    59  56  89 SE5       30.00R
6HR MIN TEMP:  59; 6HR MAX TEMP:  74;

SPARTA         PTCLDY    51  49  94 CALM      30.02S
VIROQUA        PTCLDY    58  52  81 CALM      30.02R
BOSCOBEL       MOCLDY    54  52  93 CALM      30.00S
6HR MIN TEMP:  54; 6HR MAX TEMP:  71;

PRAIRIE DU CHI MOCLDY    56  53  90 E3        30.00R
PLATTEVILLE    CLOUDY    59  53  78 NE6       30.00S
$$

WIZ056-057-062-063-064-067-068-030700-
SOUTH CENTRAL WISCONSIN

CITY           SKY/WX    TMP DP  RH WIND       PRES   REMARKS
REEDSBURG      PTCLDY    54  53  95 CALM      30.00S
BARABOO/DELLS  PTCLDY    53  49  87 CALM      30.01S
LONE ROCK      NOT AVBL
MINERAL POINT  MOCLDY    59  50  72 E5        30.01R
MADISON        MOCLDY    53  47  79 CALM      30.01S
6HR MIN TEMP:  53; 6HR MAX TEMP:  69;

MIDDLETON      MOCLDY    53  52  95 CALM      30.02S
WATERTOWN      PTCLDY    54  49  85 CALM      30.01S
MONROE         MOCLDY    57  52  82 E6        30.00S
JANESVILLE     MOCLDY    55  52  88 CALM      30.01R
$$

WIZ051-052-058>065-066-070>072-030700-
SOUTHEAST WISCONSIN

CITY           SKY/WX    TMP DP  RH WIND       PRES   REMARKS
MILWAUKEE      MOCLDY    56  47  71 CALM      30.02S
6HR MIN TEMP:  56; 6HR MAX TEMP:  60;

WAUKESHA       PTCLDY    50  45  81 CALM      30.03S
MILWAUKEE/TIMM PTCLDY    52  45  76 CALM      30.03S
RACINE         PTCLDY    56  46  69 NE3       30.02F
6HR MIN TEMP:  55; 6HR MAX TEMP:  60;

BURLINGTON     MOCLDY    48  47  96 CALM      30.01S
KENOSHA        MOCLDY    50  46  86 CALM      30.01S
6HR MIN TEMP:  50; 6HR MAX TEMP:  63;

FOND DU LAC    CLEAR     54  48  80 S5        30.01F
6HR MIN TEMP:  54; 6HR MAX TEMP:  70;

SHEBOYGAN      CLEAR     50  47  89 CALM      30.01F
6HR MIN TEMP:  49; 6HR MAX TEMP:  65;

WEST BEND      PTCLDY    50  46  87 CALM      30.02S
JUNEAU         PTCLDY    55  49  81 E3        30.02S
$$

LSZ147-162-030700-
LAKE SUPERIOR

STATION/POSITION TIME  TEMP    WIND        PRES    WAVE
                       AIR SEA DIR/SP/G            HT/PER
                 (UTC) (F)     (DEG/KT/KT) (MB)    (FT/S)
W MID LAKE BUOY  0450   49 39  220/ 12/ 14 1012.1F   0
DEVILS ISLAND    0500   66     220/ 13/ 15 1012.5F
SAXON HARBOR     0540   60     190/  1/  5 1013.2F
$$

LMZ867-665-643>646-030700-
LAKE MICHIGAN

STATION/POSITION TIME  TEMP    WIND        PRES    WAVE
                       AIR SEA DIR/SP/G            HT/PER
                 (UTC) (F)     (DEG/KT/KT) (MB)    (FT/S)
CHAMBERS ISLAND  0500   57      CALM  /  2 1015.6S
S GREEN BAY BUOY 0530   66 69  180/ 10/ 12 1017.0
N MID LAKE BUOY  0450   53 49  190/  6/  6 1015.6F   0
NORTHPORT PIER   0500   56     210/  2/  3 1015.6S
SISTER BAY       0514   59        CALM       N/A
ALGOMA LAKESHORE 0525             CALM       N/A
KEWAUNEE LAKESHO 0500   55     300/  1/  3 1015.5R
SHEBOYGAN LAKESH 0500   59     300/  2/  2 1016.8F
PORT WASHINGTON  0500   58     330/  2/  3 1016.9F
ATWATER BUOY     0500   60      10/  6/  8 1017.7R
MILWAUKEE LAKESH 0500   59      20/  5/  6   N/A
KENOSHA   LAKESH 0500   60      10/  9/ 10 1015.9S
$$

TC  - TEMPERATURE IN CELSIUS
VSB - VISIBILITY IN STATUTE MILES
WCI - WIND CHILL INDEX
HX  - HEAT INDEX



USA.gov is the U.S. government's official web portal to all federal, state and local government web resources and services.